This is the latest recevied weather packets stored in our database for station/object KE8GJZ-1. If no packets are shown the sender has not sent any weather packets the latest 10 day(s).
| Time | Temp. | Humidity | Pressure | Rain* | Wind** | Luminosity | Snow |
|---|---|---|---|---|---|---|---|
| 1778097425 | 13.33° C | 41% | 1010.5 hPa | 0 mm | - | 203 W/m² | - |
| 1778097122 | 13.89° C | 39% | 1010.7 hPa | 0 mm | - | 303 W/m² | - |
| 1778096819 | 12.78° C | 42% | 1011 hPa | 0 mm | - | 736 W/m² | - |
| 1778096515 | 12.78° C | 42% | 1010.8 hPa | 0 mm | - | 180 W/m² | - |
| 1778096213 | 13.89° C | 40% | 1010.9 hPa | 0 mm | - | 160 W/m² | - |
| 1778095910 | 12.78° C | 43% | 1010.8 hPa | 0 mm | - | 786 W/m² | - |
| 1778095606 | 12.78° C | 43% | 1010.8 hPa | 0 mm | - | 192 W/m² | - |
| 1778095302 | 12.78° C | 41% | 1010.9 hPa | 0 mm | - | 203 W/m² | - |
| 1778095000 | 12.78° C | 42% | 1011 hPa | 0 mm | - | 192 W/m² | - |
| 1778094696 | 13.33° C | 42% | 1011.1 hPa | 0 mm | - | 290 W/m² | - |
| 1778094393 | 12.78° C | 43% | 1011.2 hPa | 0 mm | - | 241 W/m² | - |
| 1778094090 | 12.22° C | 45% | 1011.1 hPa | 0 mm | - | 298 W/m² | - |
| 1778093787 | 12.22° C | 43% | 1011.3 hPa | 0 mm | - | 333 W/m² | - |
| 1778093483 | 12.22° C | 46% | 1011 hPa | 0 mm | - | 233 W/m² | - |
| 1778093181 | 11.67° C | 43% | 1010.9 hPa | 0 mm | - | 207 W/m² | - |
| 1778092878 | 12.22° C | 43% | 1010.9 hPa | 0 mm | - | 188 W/m² | - |
| 1778092574 | 12.22° C | 42% | 1010.9 hPa | 0 mm | - | 233 W/m² | - |
| 1778092270 | 12.22° C | 45% | 1011 hPa | 0 mm | - | 253 W/m² | - |
| 1778091968 | 12.22° C | 47% | 1010.5 hPa | 0 mm | - | 288 W/m² | - |
| 1778091665 | 11.67° C | 42% | 1010.8 hPa | 0 mm | - | 236 W/m² | - |
| 1778091363 | 11.67° C | 41% | 1010.7 hPa | 0 mm | - | 195 W/m² | - |
| 1778091060 | 12.22° C | 41% | 1010.8 hPa | 0 mm | - | 202 W/m² | - |
| 1778090756 | 12.22° C | 45% | 1010.8 hPa | 0 mm | - | 237 W/m² | - |
| 1778090453 | 12.78° C | 46% | 1011 hPa | 0 mm | - | 149 W/m² | - |
| 1778090149 | 12.22° C | 43% | 1010.8 hPa | 0 mm | - | 385 W/m² | - |
* Rain latest hour (hover to see other rain measurements)
** Current wind speed in m/s (hover to see current wind gust speed)